Time,TemperatureF,DewpointF,PressureIn,WindDirection,WindDirectionDegrees,WindSpeedMPH,WindSpeedGustMPH,Humidity,HourlyPrecipIn,Conditions,Clouds,dailyrainin,SoftwareType,DateUTC
2013-03-05 00:02:00,24.0,17.0,29.97,WSW,243,1.0,5.0,73,0.00,,,0.00,,2013-03-05 05:02:00,
2013-03-05 00:12:00,24.0,17.0,29.97,WSW,243,1.0,5.0,73,0.00,,,0.00,,2013-03-05 05:12:00,
2013-03-05 00:22:00,23.0,16.0,29.97,WSW,239,2.0,5.0,75,0.00,,,0.00,,2013-03-05 05:22:00,
2013-03-05 00:32:00,23.0,17.0,29.97,WSW,251,2.0,5.0,76,0.00,,,0.00,,2013-03-05 05:32:00,
2013-03-05 00:42:00,23.0,17.0,29.97,WSW,251,2.0,5.0,76,0.00,,,0.00,,2013-03-05 05:42:00,
2013-03-05 00:52:00,22.0,16.0,29.97,WSW,250,2.0,6.0,76,0.00,,,0.00,,2013-03-05 05:52:00,
2013-03-05 01:01:00,22.0,16.0,29.97,WSW,253,2.0,5.0,77,0.00,,,0.00,,2013-03-05 06:01:00,
2013-03-05 01:11:00,22.0,16.0,29.97,WSW,253,2.0,5.0,77,0.00,,,0.00,,2013-03-05 06:11:00,
2013-03-05 01:22:00,22.0,16.0,29.97,WSW,237,1.0,5.0,78,0.00,,,0.00,,2013-03-05 06:22:00,
2013-03-05 01:32:00,22.0,16.0,29.97,WSW,243,1.0,5.0,78,0.00,,,0.00,,2013-03-05 06:32:00,
2013-03-05 01:42:00,22.0,16.0,29.97,WSW,243,1.0,5.0,78,0.00,,,0.00,,2013-03-05 06:42:00,
2013-03-05 01:52:00,22.0,16.0,29.97,WSW,244,1.0,3.0,79,0.00,,,0.00,,2013-03-05 06:52:00,
2013-03-05 02:01:00,21.0,16.0,29.97,North,0,0.0,3.0,79,0.00,,,0.00,,2013-03-05 07:01:00,
2013-03-05 02:11:00,21.0,16.0,29.97,North,0,0.0,3.0,79,0.00,,,0.00,,2013-03-05 07:11:00,
2013-03-05 02:22:00,21.0,16.0,29.97,North,0,0.0,3.0,79,0.00,,,0.00,,2013-03-05 07:22:00,
2013-03-05 02:31:00,21.0,16.0,29.97,SW,236,1.0,4.0,80,0.00,,,0.00,,2013-03-05 07:31:00,
2013-03-05 02:42:00,21.0,16.0,29.97,SW,236,1.0,4.0,80,0.00,,,0.00,,2013-03-05 07:42:00,
2013-03-05 02:52:00,21.0,16.0,29.97,WSW,240,2.0,5.0,81,0.00,,,0.00,,2013-03-05 07:52:00,
2013-03-05 03:02:00,20.0,15.0,29.98,WSW,239,1.0,3.0,81,0.00,,,0.00,,2013-03-05 08:02:00,
2013-03-05 03:11:00,20.0,15.0,29.98,WSW,239,1.0,3.0,81,0.00,,,0.00,,2013-03-05 08:11:00,
2013-03-05 03:21:00,20.0,15.0,29.97,WSW,237,1.0,5.0,82,0.00,,,0.00,,2013-03-05 08:21:00,
2013-03-05 03:31:00,20.0,16.0,29.97,WSW,240,1.0,3.0,83,0.00,,,0.00,,2013-03-05 08:31:00,
2013-03-05 03:42:00,20.0,16.0,29.97,WSW,240,1.0,3.0,83,0.00,,,0.00,,2013-03-05 08:42:00,
2013-03-05 03:52:00,20.0,16.0,29.97,WSW,242,2.0,3.0,83,0.00,,,0.00,,2013-03-05 08:52:00,
2013-03-05 04:01:00,20.0,16.0,29.96,North,0,0.0,2.0,83,0.00,,,0.00,,2013-03-05 09:01:00,
2013-03-05 04:11:00,20.0,16.0,29.96,North,0,0.0,2.0,83,0.00,,,0.00,,2013-03-05 09:11:00,
2013-03-05 04:21:00,18.0,14.0,29.96,North,0,0.0,0.0,85,0.00,,,0.00,,2013-03-05 09:21:00,
2013-03-05 04:32:00,18.0,15.0,29.96,North,0,0.0,0.0,87,0.00,,,0.00,,2013-03-05 09:32:00,
2013-03-05 04:42:00,18.0,15.0,29.96,North,0,0.0,0.0,87,0.00,,,0.00,,2013-03-05 09:42:00,
2013-03-05 04:52:00,18.0,15.0,29.96,North,0,0.0,0.0,87,0.00,,,0.00,,2013-03-05 09:52:00,
2013-03-05 05:01:00,18.0,15.0,29.96,North,0,0.0,0.0,87,0.00,,,0.00,,2013-03-05 10:01:00,
2013-03-05 05:11:00,18.0,15.0,29.96,North,0,0.0,0.0,87,0.00,,,0.00,,2013-03-05 10:11:00,
2013-03-05 05:21:00,17.0,13.0,29.97,North,0,0.0,0.0,85,0.00,,,0.00,,2013-03-05 10:21:00,
2013-03-05 05:32:00,16.0,13.0,29.97,North,0,0.0,0.0,89,0.00,,,0.00,,2013-03-05 10:32:00,
2013-03-05 05:42:00,16.0,13.0,29.97,North,0,0.0,0.0,89,0.00,,,0.00,,2013-03-05 10:42:00,
2013-03-05 05:52:00,16.0,14.0,29.96,North,0,0.0,2.0,90,0.00,,,0.00,,2013-03-05 10:52:00,
2013-03-05 06:01:00,17.0,15.0,29.96,North,0,0.0,0.0,90,0.00,,,0.00,,2013-03-05 11:01:00,
2013-03-05 06:11:00,17.0,15.0,29.96,North,0,0.0,0.0,90,0.00,,,0.00,,2013-03-05 11:11:00,
2013-03-05 06:22:00,16.0,13.0,29.97,North,0,0.0,0.0,89,0.00,,,0.00,,2013-03-05 11:22:00,
2013-03-05 06:32:00,16.0,13.0,29.97,North,0,0.0,0.0,89,0.00,,,0.00,,2013-03-05 11:32:00,
2013-03-05 06:42:00,16.0,13.0,29.97,North,0,0.0,0.0,89,0.00,,,0.00,,2013-03-05 11:42:00,
2013-03-05 06:52:00,16.0,13.0,29.96,North,0,0.0,0.0,89,0.00,,,0.00,,2013-03-05 11:52:00,
2013-03-05 07:02:00,15.0,12.0,29.96,North,0,0.0,0.0,89,0.00,,,0.00,,2013-03-05 12:02:00,
2013-03-05 07:12:00,15.0,12.0,29.96,North,0,0.0,0.0,89,0.00,,,0.00,,2013-03-05 12:12:00,
2013-03-05 07:22:00,15.0,13.0,29.97,North,0,0.0,0.0,91,0.00,,,0.00,,2013-03-05 12:22:00,
2013-03-05 07:32:00,16.0,14.0,29.97,North,0,0.0,2.0,91,0.00,,,0.00,,2013-03-05 12:32:00,
2013-03-05 07:42:00,16.0,14.0,29.97,North,0,0.0,2.0,91,0.00,,,0.00,,2013-03-05 12:42:00,
2013-03-05 07:53:00,17.0,15.0,29.97,North,0,0.0,0.0,90,0.00,,,0.00,,2013-03-05 12:53:00,
2013-03-05 08:02:00,19.0,16.0,29.96,North,0,0.0,0.0,88,0.00,,,0.00,,2013-03-05 13:02:00,
2013-03-05 08:11:00,19.0,16.0,29.96,North,0,0.0,0.0,88,0.00,,,0.00,,2013-03-05 13:11:00,
2013-03-05 08:22:00,19.0,14.0,29.96,North,0,0.0,2.0,82,0.00,,,0.00,,2013-03-05 13:22:00,
2013-03-05 08:32:00,19.0,14.0,29.96,North,0,0.0,2.0,82,0.00,,,0.00,,2013-03-05 13:32:00,
2013-03-05 08:42:00,19.0,14.0,29.96,North,0,0.0,2.0,82,0.00,,,0.00,,2013-03-05 13:42:00,
2013-03-05 08:52:00,21.0,17.0,29.96,North,0,0.0,2.0,83,0.00,,,0.00,,2013-03-05 13:52:00,
2013-03-05 09:02:00,25.0,19.0,29.96,North,0,0.0,2.0,77,0.00,,,0.00,,2013-03-05 14:02:00,
2013-03-05 09:11:00,25.0,19.0,29.96,North,0,0.0,2.0,77,0.00,,,0.00,,2013-03-05 14:11:00,
2013-03-05 09:22:00,27.0,19.0,29.95,North,0,0.0,3.0,72,0.00,,,0.00,,2013-03-05 14:22:00,
2013-03-05 09:32:00,26.0,19.0,29.95,North,0,0.0,4.0,74,0.00,,,0.00,,2013-03-05 14:32:00,
2013-03-05 09:42:00,26.0,19.0,29.95,North,0,0.0,4.0,74,0.00,,,0.00,,2013-03-05 14:42:00,
2013-03-05 09:52:00,29.0,20.0,29.94,North,0,0.0,2.0,69,0.00,,,0.00,,2013-03-05 14:52:00,
2013-03-05 10:02:00,27.0,19.0,29.95,SW,215,2.0,5.0,70,0.00,,,0.00,,2013-03-05 15:02:00,
2013-03-05 10:11:00,27.0,19.0,29.95,SW,215,2.0,5.0,70,0.00,,,0.00,,2013-03-05 15:11:00,
2013-03-05 10:21:00,28.0,19.0,29.94,SW,218,1.0,5.0,69,0.00,,,0.00,,2013-03-05 15:21:00,
2013-03-05 10:32:00,30.0,19.0,29.93,SW,226,2.0,4.0,63,0.00,,,0.00,,2013-03-05 15:32:00,
2013-03-05 10:42:00,30.0,19.0,29.93,SW,226,2.0,4.0,63,0.00,,,0.00,,2013-03-05 15:42:00,
2013-03-05 10:52:00,32.0,20.0,29.92,North,0,0.0,2.0,60,0.00,,,0.00,,2013-03-05 15:52:00,
2013-03-05 11:02:00,32.0,19.0,29.95,WSW,247,1.0,4.0,59,0.01,,,0.01,,2013-03-05 16:02:00,
2013-03-05 11:11:00,32.0,19.0,29.95,WSW,247,1.0,4.0,59,0.01,,,0.01,,2013-03-05 16:11:00,
2013-03-05 11:22:00,33.0,19.0,29.96,SW,233,2.0,7.0,57,0.01,,,0.01,,2013-03-05 16:22:00,
2013-03-05 11:32:00,33.0,12.0,29.96,SW,227,4.0,7.0,42,0.01,,,0.01,,2013-03-05 16:32:00,
2013-03-05 11:42:00,33.0,12.0,29.96,SW,227,4.0,7.0,42,0.01,,,0.01,,2013-03-05 16:42:00,
2013-03-05 11:52:00,34.0,16.0,29.94,SW,226,2.0,4.0,47,0.01,,,0.01,,2013-03-05 16:52:00,
2013-03-05 12:01:00,34.0,13.0,29.94,WSW,239,2.0,5.0,41,0.00,,,0.01,,2013-03-05 17:01:00,
2013-03-05 12:11:00,34.0,13.0,29.94,WSW,239,2.0,5.0,41,0.00,,,0.01,,2013-03-05 17:11:00,
2013-03-05 12:21:00,37.0,16.0,29.93,North,0,0.0,4.0,41,0.00,,,0.01,,2013-03-05 17:21:00,
2013-03-05 12:32:00,38.0,15.0,29.93,North,0,0.0,3.0,39,0.00,,,0.01,,2013-03-05 17:32:00,
2013-03-05 12:42:00,38.0,15.0,29.93,North,0,0.0,3.0,39,0.00,,,0.01,,2013-03-05 17:42:00,
2013-03-05 12:52:00,39.0,17.0,29.91,North,0,0.0,4.0,40,0.00,,,0.01,,2013-03-05 17:52:00,
2013-03-05 13:02:00,39.0,15.0,29.90,NNW,327,3.0,6.0,37,0.00,,,0.01,,2013-03-05 18:02:00,
2013-03-05 13:11:00,39.0,15.0,29.90,NNW,327,3.0,6.0,37,0.00,,,0.01,,2013-03-05 18:11:00,
2013-03-05 13:22:00,39.0,13.0,29.89,WNW,297,1.0,4.0,34,0.00,,,0.01,,2013-03-05 18:22:00,
2013-03-05 13:32:00,40.0,16.0,29.88,North,0,0.0,3.0,37,0.00,,,0.01,,2013-03-05 18:32:00,
2013-03-05 13:42:00,40.0,16.0,29.88,North,0,0.0,3.0,37,0.00,,,0.01,,2013-03-05 18:42:00,
2013-03-05 13:53:00,40.0,16.0,29.88,North,0,0.0,3.0,37,0.00,,,0.01,,2013-03-05 18:53:00,
2013-03-05 14:01:00,41.0,11.0,29.86,SE,124,3.0,8.0,29,0.00,,,0.01,,2013-03-05 19:01:00,
2013-03-05 14:11:00,41.0,11.0,29.86,SE,124,3.0,8.0,29,0.00,,,0.01,,2013-03-05 19:11:00,
2013-03-05 14:22:00,41.0,10.0,29.85,ESE,123,3.0,7.0,28,0.00,,,0.01,,2013-03-05 19:22:00,
2013-03-05 14:32:00,41.0,10.0,29.84,East,96,5.0,8.0,27,0.00,,,0.01,,2013-03-05 19:32:00,
2013-03-05 14:42:00,41.0,10.0,29.84,East,96,5.0,8.0,27,0.00,,,0.01,,2013-03-05 19:42:00,
2013-03-05 14:52:00,41.0,10.0,29.84,East,100,4.0,11.0,27,0.00,,,0.01,,2013-03-05 19:52:00,
2013-03-05 15:01:00,41.0,10.0,29.84,East,100,4.0,11.0,27,0.00,,,0.01,,2013-03-05 20:01:00,
2013-03-05 15:11:00,41.0,8.0,29.82,East,98,2.0,7.0,25,0.00,,,0.01,,2013-03-05 20:11:00,
2013-03-05 15:22:00,41.0,8.0,29.82,East,98,2.0,7.0,25,0.00,,,0.01,,2013-03-05 20:22:00,
2013-03-05 15:32:00,41.0,6.0,29.81,East,93,5.0,9.0,23,0.00,,,0.01,,2013-03-05 20:32:00,
2013-03-05 15:42:00,41.0,6.0,29.81,East,93,5.0,9.0,23,0.00,,,0.01,,2013-03-05 20:42:00,
2013-03-05 15:52:00,41.0,3.0,29.81,ESE,105,4.0,10.0,20,0.00,,,0.01,,2013-03-05 20:52:00,
2013-03-05 16:02:00,41.0,7.0,29.81,ESE,102,3.0,9.0,24,0.00,,,0.01,,2013-03-05 21:02:00,
2013-03-05 16:11:00,41.0,7.0,29.81,ESE,102,3.0,9.0,24,0.00,,,0.01,,2013-03-05 21:11:00,
2013-03-05 16:22:00,40.0,9.0,29.81,ESE,104,2.0,8.0,27,0.00,,,0.01,,2013-03-05 21:22:00,
2013-03-05 16:32:00,41.0,10.0,29.81,ESE,110,2.0,9.0,28,0.00,,,0.01,,2013-03-05 21:32:00,
2013-03-05 16:42:00,41.0,10.0,29.81,ESE,110,2.0,9.0,28,0.00,,,0.01,,2013-03-05 21:42:00,
2013-03-05 16:52:00,40.0,7.0,29.80,ESE,111,6.0,11.0,25,0.00,,,0.01,,2013-03-05 21:52:00,
2013-03-05 17:01:00,40.0,8.0,29.80,ESE,104,5.0,10.0,26,0.00,,,0.01,,2013-03-05 22:01:00,
2013-03-05 17:11:00,40.0,8.0,29.80,ESE,104,5.0,10.0,26,0.00,,,0.01,,2013-03-05 22:11:00,
2013-03-05 17:22:00,40.0,10.0,29.80,ESE,112,3.0,11.0,28,0.00,,,0.01,,2013-03-05 22:22:00,
2013-03-05 17:32:00,40.0,12.0,29.79,ESE,107,5.0,11.0,31,0.00,,,0.01,,2013-03-05 22:32:00,
2013-03-05 17:42:00,40.0,12.0,29.79,ESE,107,5.0,11.0,31,0.00,,,0.01,,2013-03-05 22:42:00,
2013-03-05 17:52:00,40.0,12.0,29.79,ESE,107,5.0,11.0,31,0.00,,,0.01,,2013-03-05 22:52:00,
2013-03-05 18:01:00,39.0,14.0,29.78,East,97,5.0,10.0,35,0.00,,,0.01,,2013-03-05 23:01:00,
2013-03-05 18:11:00,39.0,14.0,29.78,East,97,5.0,10.0,35,0.00,,,0.01,,2013-03-05 23:11:00,
2013-03-05 18:22:00,38.0,13.0,29.77,East,88,6.0,12.0,35,0.00,,,0.01,,2013-03-05 23:22:00,
2013-03-05 18:32:00,38.0,13.0,29.77,East,88,6.0,12.0,35,0.00,,,0.01,,2013-03-05 23:32:00,
2013-03-05 18:42:00,38.0,13.0,29.77,East,88,6.0,12.0,35,0.00,,,0.01,,2013-03-05 23:42:00,
2013-03-05 18:53:00,37.0,13.0,29.75,East,85,5.0,11.0,36,0.00,,,0.01,,2013-03-05 23:53:00,
2013-03-05 19:01:00,36.0,12.0,29.76,East,96,6.0,13.0,37,0.00,,,0.01,,2013-03-06 00:01:00,
2013-03-05 19:11:00,36.0,12.0,29.76,East,96,6.0,13.0,37,0.00,,,0.01,,2013-03-06 00:11:00,
2013-03-05 19:21:00,36.0,13.0,29.77,East,90,5.0,11.0,38,0.00,,,0.01,,2013-03-06 00:21:00,
2013-03-05 19:32:00,36.0,13.0,29.77,East,84,4.0,11.0,38,0.00,,,0.01,,2013-03-06 00:32:00,
2013-03-05 19:42:00,36.0,13.0,29.77,East,84,4.0,11.0,38,0.00,,,0.01,,2013-03-06 00:42:00,
2013-03-05 19:52:00,35.0,14.0,29.75,East,80,4.0,9.0,41,0.00,,,0.01,,2013-03-06 00:52:00,
2013-03-05 20:02:00,35.0,13.0,29.75,East,80,6.0,12.0,39,0.00,,,0.01,,2013-03-06 01:02:00,
2013-03-05 20:11:00,35.0,13.0,29.75,East,80,6.0,12.0,39,0.00,,,0.01,,2013-03-06 01:11:00,
2013-03-05 20:21:00,35.0,12.0,29.74,East,96,3.0,10.0,38,0.00,,,0.01,,2013-03-06 01:21:00,
2013-03-05 20:32:00,35.0,13.0,29.73,East,84,1.0,8.0,39,0.00,,,0.01,,2013-03-06 01:32:00,
2013-03-05 20:42:00,35.0,13.0,29.73,East,84,1.0,8.0,39,0.00,,,0.01,,2013-03-06 01:42:00,
2013-03-05 20:52:00,34.0,12.0,29.75,ENE,71,2.0,6.0,40,0.00,,,0.01,,2013-03-06 01:52:00,
2013-03-05 21:01:00,34.0,15.0,29.74,East,85,5.0,13.0,45,0.00,,,0.01,,2013-03-06 02:01:00,
2013-03-05 21:11:00,34.0,15.0,29.74,East,85,5.0,13.0,45,0.00,,,0.01,,2013-03-06 02:11:00,
2013-03-05 21:22:00,34.0,15.0,29.74,East,85,5.0,13.0,45,0.00,,,0.01,,2013-03-06 02:22:00,
2013-03-05 21:32:00,34.0,18.0,29.72,ENE,73,3.0,10.0,51,0.00,,,0.01,,2013-03-06 02:32:00,
2013-03-05 21:42:00,34.0,18.0,29.72,ENE,73,3.0,10.0,51,0.00,,,0.01,,2013-03-06 02:42:00,
2013-03-05 21:52:00,34.0,18.0,29.72,East,94,6.0,14.0,51,0.00,,,0.01,,2013-03-06 02:52:00,
2013-03-05 22:02:00,33.0,17.0,29.72,ENE,57,4.0,10.0,52,0.00,,,0.01,,2013-03-06 03:02:00,
2013-03-05 22:11:00,33.0,17.0,29.72,ENE,57,4.0,10.0,52,0.00,,,0.01,,2013-03-06 03:11:00,
2013-03-05 22:22:00,33.0,18.0,29.72,East,82,6.0,19.0,54,0.00,,,0.01,,2013-03-06 03:22:00,
2013-03-05 22:32:00,32.0,20.0,29.72,East,92,7.0,15.0,61,0.00,,,0.01,,2013-03-06 03:32:00,
2013-03-05 22:42:00,32.0,20.0,29.72,East,92,7.0,15.0,61,0.00,,,0.01,,2013-03-06 03:42:00,
2013-03-05 22:52:00,32.0,21.0,29.72,East,95,11.0,19.0,64,0.00,,,0.01,,2013-03-06 03:52:00,
2013-03-05 23:02:00,30.0,24.0,29.70,East,100,8.0,19.0,78,0.00,,,0.01,,2013-03-06 04:02:00,
2013-03-05 23:11:00,30.0,24.0,29.70,East,100,8.0,19.0,78,0.00,,,0.01,,2013-03-06 04:11:00,
2013-03-05 23:22:00,29.0,24.0,29.70,ESE,104,10.0,16.0,82,0.00,,,0.01,,2013-03-06 04:22:00,
2013-03-05 23:32:00,28.0,25.0,29.68,East,92,7.0,16.0,89,0.00,,,0.01,,2013-03-06 04:32:00,
2013-03-05 23:42:00,28.0,25.0,29.68,East,92,7.0,16.0,89,0.00,,,0.01,,2013-03-06 04:42:00,
2013-03-05 23:52:00,28.0,26.0,29.67,East,98,6.0,15.0,91,0.00,,,0.01,,2013-03-06 04:52:00,